Hourly Data Report for October 28, 2015

All times are specified in Local Standard Time (LST). Add 1 hour to adjust for Daylight Saving Time where and when it is observed.

RANKIN INLET A
NUNAVUT

62°48'38.000" N
92°06'53.000" W
32.30 m
2303405
71083
YRT

Download Data

Hourly Data (October 2015)
Hourly Data Report for October 28, 2015
Temp Definition
°C
Dew Point Temp Definition
°C
Rel Hum Definition
%
Wind Dir Definition
10's deg

Wind Spd Definition
km/h
Visibility Definition
km
Stn Press Definition
kPa
Hmdx Definition


Wind Chill Definition


Weather Definition


TIME
00:00 Legend Double Dagger -15.8 -18.1 83 36 8 24.1 101.20   -21 Ice Crystals
01:00 Legend Double Dagger -14.9 -17.2 83 1 9 24.1 101.19   -21 Ice Crystals
02:00 Legend Double Dagger -14.1 -16.4 83 2 9 24.1 101.16   -20 Ice Crystals
03:00 Legend Double Dagger -13.1 -15.9 80 36 7 24.1 101.17   -18 Ice Crystals
04:00 Legend Double Dagger -12.7 -15.9 77 35 10 8.1 101.15   -18 Ice Crystals
05:00 Legend Double Dagger -12.4 -15.6 77 35 10 24.1 101.13   -18 Ice Crystals
06:00 Legend Double Dagger -11.7 -14.8 78 1 10 24.1 101.09   -17 Ice Crystals
07:00
08:00 Legend Double Dagger -11.7 -14.6 79 36 8 24.1 101.01   -16 LegendNANA
09:00 Legend Double Dagger -12.3 -15.1 80 35 8 24.1 100.97   -17 Mostly Cloudy
10:00 Legend Double Dagger -11.7 -15.0 77 36 10 24.1 100.94   -17 LegendNANA
11:00 Legend Double Dagger -11.2 -14.0 80 36 11 24.1 100.94   -17 LegendNANA
12:00 Legend Double Dagger -11.0 -14.3 77 35 13 24.1 100.96   -17 Mostly Cloudy
13:00 Legend Double Dagger -10.4 -13.9 76 36 14 24.1 100.95   -17 LegendNANA
14:00 Legend Double Dagger -10.5 -13.8 77 35 18 24.1 100.93   -18 LegendNANA
15:00 Legend Double Dagger -10.8 -13.9 78 35 17 24.1 100.91   -18 Cloudy
16:00 Legend Double Dagger -10.9 -13.7 80 35 16 24.1 100.89   -18 LegendNANA
17:00 Legend Double Dagger -11.8 -14.4 81 34 22 24.1 100.88   -21 Snow
18:00 Legend Double Dagger -12.0 -14.5 82 35 22 16.1 100.86   -21 Snow
19:00 Legend Double Dagger -12.5 -14.8 83 35 22 16.1 100.82   -21 Snow
20:00 Legend Double Dagger -14.0 -16.3 83 35 24 16.1 100.82   -24 Snow
21:00 Legend Double Dagger -14.6 -16.3 87 34 21 16.1 100.78   -24 Snow
22:00 Legend Double Dagger -14.6 -16.5 86 35 14 16.1 100.75   -22 Snow
23:00 Legend Double Dagger -13.6 -15.5 86 34 14 16.1 100.71   -21 Snow

Notes on Data Quality.

Legend

  • E = Estimated
  • M = Missing
  • NA = Not Available
  • ‡ = Partner data that is not subject to review by the National Climate Archives
Date modified: